Regional Weather Roundup
Issued by NWS

Home | Current Version | Previous Version | Text Only | Print | Product List | Glossary Off
Versions: 1 2 3 4 5 6 7 8 9 10 11 12 13 14 15 16 17 18 19 20 21 22 23 24 25 26 27 28 29 30 31 32 33 34 35 36 37 38 39 40 41 42 43 44 45 46 47

000
ASUS45 KBOU 191907
RWRCO

WEATHER ROUNDUP FOR COLORADO
NATIONAL WEATHER SERVICE DENVER/BOULDER CO
100 PM MDT FRI SEP 19 2014

NOTE: "FAIR" INDICATES FEW OR NO CLOUDS BELOW 12000 FEET WITH NO
SIGNIFICANT WEATHER AND/OR OBSTRUCTIONS TO VISIBILITY.

COZ001>005-013-030-031-192000-
...NORTHWEST COLORADO...

CITY           SKY/WX    TMP DP  RH WIND       PRES   REMARKS
CRAIG          SUNNY     80  44  27 VRB7      30.12F
HAYDEN         SUNNY     75  37  25 SW6       30.14F
MEEKER         SUNNY     79  43  27 VRB5      30.14F
MOUNT WERNER   NOT AVBL
STEAMBOAT SPGS SUNNY     74  40  30 CALM      30.16F
WALDEN         SUNNY     72  37  28 SW7       30.23F
$$

COZ006>008-011-192000-
...WEST CENTRAL VALLEYS...

CITY           SKY/WX    TMP DP  RH WIND       PRES   REMARKS
GRAND JUNCTION SUNNY     83  41  22 SW6       30.02F
MONTROSE       MOSUNNY   83  43  24 NW3       30.10F
EAGLE          MOSUNNY   77  39  25 N3        30.15F
RIFLE          SUNNY     80  39  23 VRB3      30.07F
DELTA          MOSUNNY   83  41  22 SE3       30.06F
NUCLA          NOT AVBL
$$

COZ017>023-064>068-192000-
...SOUTHWEST COLORADO...

CITY           SKY/WX    TMP DP  RH WIND       PRES   REMARKS
DURANGO        SUNNY     76  44  32 CALM      30.15F
CORTEZ         SUNNY     81  47  30 VRB7      30.11F
PAGOSA SPRINGS SUNNY     76  39  26 SW8       30.20F
TELLURIDE      NOT AVBL
WOLF CREEK PAS MOSUNNY   59  32  36 NE14G21   30.51S
$$

COZ009-010-012-014-032>034-037-058>063-192000-
...CENTRAL COLORADO...

CITY           SKY/WX    TMP DP  RH WIND       PRES   REMARKS
ASPEN          SUNNY     77  37  23 NW10G17   30.21F
BUENA VISTA    SUNNY     77  21  12 SE8       30.19F
COPPER MTN     NOT AVBL
BERTHOUD PASS  FAIR      52  50  93 NE5G21    30.57F
COTTONWOOD PAS MOSUNNY   72  21  15 S7G16     30.35F
GUNNISON       SUNNY     72  39  30 SW8       30.24F
KREMMLING      SUNNY     77  32  19 CALM      30.19F
LEADVILLE      MOSUNNY   66  30  26 NW12G20   30.35F
SALIDA         SUNNY     80  28  15 W3        30.24F
SUNLIGHT       MOSUNNY   59  41  51 CALM      30.48S
WILKERSON PASS NOT AVBL
$$

COZ069>075-192000-
...SAN LUIS VALLEY/SANGRE DE CRISTO MOUNTAINS...

CITY           SKY/WX    TMP DP  RH WIND       PRES   REMARKS
ALAMOSA        SUNNY     74  38  27 MISG      30.19F
LA VETA PASS   MOSUNNY   64  36  34 E5        30.37F
SAGUACHE       NOT AVBL
$$

COZ035-036-038>040-192000-
...NORTHERN COLORADO FRONT RANGE...

CITY           SKY/WX    TMP DP  RH WIND       PRES   REMARKS
DENVER INTL AP MOSUNNY   83  43  24 NE7       30.02F
DMNS CITY PARK   N/A     84  41  22 E3        30.01F
AURORA         MOSUNNY   82  41  23 E8        30.05F
FRONT RANGE AP MOSUNNY   84  43  23 N7        30.04F
ERIE MUNI ARPT MOSUNNY   83  40  21 S10       30.01F
BOULDER MUN AP MOSUNNY   81  45  28 S6        30.01F
CENTENNIAL     MOSUNNY   81  39  22 E6        30.06F
BROOMFIELD     MOSUNNY   82  41  23 VRB3      30.06F
FORT COLLINS   SUNNY     82  48  30 S8        29.99F
LONGMONT       SUNNY     84  46  25 S8        30.01F
$$

COZ041-046-047-076>085-087-088-192000-
...PIKES PEAK/PALMER DIVIDE AND SOUTHERN FOOTHILLS...

CITY           SKY/WX    TMP DP  RH WIND       PRES   REMARKS
COLO. SPRINGS  MOSUNNY   87  35  15 NE15G22   30.07F
A. F. ACADEMY  SUNNY     82  39  21 N17G25    30.10S
ELLICOTT       NOT AVBL
FALCON         SUNNY     81  36  19 N16G24    30.14S
FORT CARSON    SUNNY     83  44  25 VRB6      30.04F
LIMON          SUNNY     86  38  18 VRB6      30.01F
MONUMENT HILL  SUNNY     77  36  22 N10G16    30.15S
TRINIDAD       SUNNY     82  39  21 S8        30.03F
$$

COZ042>045-048>051-090-091-192000-
...NORTHEAST COLORADO...

CITY           SKY/WX    TMP DP  RH WIND       PRES   REMARKS
GREELEY ARPT   SUNNY     88  46  23 SW7       29.97F
AKRON          SUNNY     86  44  23 NE8       29.95F
BURLINGTON     SUNNY     85  55  35 S22G29    29.97F
WRAY           SUNNY     92  50  23 S9G16     29.90F
STERLING       SUNNY     88  54  31 N3        29.92S
HOLYOKE        SUNNY     91  52  25 SW7       29.89F
FORT MORGAN    SUNNY     87  47  25 CALM      29.96F
$$

COZ086-089-092>099-192000-
...SOUTHEAST COLORADO...

CITY           SKY/WX    TMP DP  RH WIND       PRES   REMARKS
PUEBLO         SUNNY     82  49  31 VRB7      29.96F
LA JUNTA       SUNNY     87  48  25 SW7       29.93F
LAMAR          SUNNY     90  57  32 S16G26    29.91F
SPRINGFIELD      N/A     81  58  45 S20G26    29.99F
$$


USA.gov is the U.S. government's official web portal to all federal, state and local government web resources and services.